Time,TemperatureF,DewpointF,PressureIn,WindDirection,WindDirectionDegrees,WindSpeedMPH,WindSpeedGustMPH,Humidity,HourlyPrecipIn,Conditions,Clouds,dailyrainin,SoftwareType,DateUTC
2013-03-09 00:00:00,39.3,32.4,30.03,NE,49,7.0,12.0,76,0.00,,,0.00,LWC V2.10 B1702,2013-03-09 05:00:00,
2013-03-09 00:05:00,39.2,32.0,30.03,NE,53,3.0,14.0,75,0.00,,,0.00,LWC V2.10 B1702,2013-03-09 05:05:00,
2013-03-09 00:10:00,39.2,32.0,30.03,NNE,28,13.0,13.0,75,0.00,,,0.00,LWC V2.10 B1702,2013-03-09 05:10:00,
2013-03-09 00:15:00,39.2,32.0,30.04,East,83,17.0,17.0,75,0.00,,,0.00,LWC V2.10 B1702,2013-03-09 05:15:00,
2013-03-09 00:20:00,39.2,31.6,30.04,ENE,57,5.0,16.0,74,0.00,,,0.00,LWC V2.10 B1702,2013-03-09 05:20:00,
2013-03-09 00:25:00,39.1,31.9,30.04,ENE,59,7.0,16.0,75,0.00,,,0.00,LWC V2.10 B1702,2013-03-09 05:25:00,
2013-03-09 00:28:00,39.0,31.8,30.04,East,86,2.0,7.0,75,0.00,,,0.00,LWC V2.10 B1702,2013-03-09 05:28:00,
2013-03-09 00:33:00,38.9,31.7,30.04,WNW,300,6.0,7.0,75,0.00,,,0.00,LWC V2.10 B1702,2013-03-09 05:33:00,
2013-03-09 00:38:00,38.9,31.7,30.04,NE,42,5.0,16.0,75,0.00,,,0.00,LWC V2.10 B1702,2013-03-09 05:38:00,
2013-03-09 00:43:00,38.9,31.7,30.04,East,82,3.0,13.0,75,0.00,,,0.00,LWC V2.10 B1702,2013-03-09 05:43:00,
2013-03-09 00:48:00,38.9,32.0,30.04,NE,40,4.0,5.0,76,0.00,,,0.00,LWC V2.10 B1702,2013-03-09 05:48:00,
2013-03-09 00:53:00,38.8,31.6,30.05,NNE,16,12.0,12.0,75,0.00,,,0.00,LWC V2.10 B1702,2013-03-09 05:53:00,
2013-03-09 00:58:00,38.8,31.6,30.05,ENE,58,4.0,8.0,75,0.00,,,0.01,LWC V2.10 B1702,2013-03-09 05:58:00,
2013-03-09 01:03:00,38.8,31.9,30.05,ENE,72,5.0,6.0,76,0.00,,,0.01,LWC V2.10 B1702,2013-03-09 06:03:00,
2013-03-09 01:08:00,38.6,31.7,30.05,NE,36,9.0,19.0,76,0.00,,,0.01,LWC V2.10 B1702,2013-03-09 06:08:00,
2013-03-09 01:13:00,38.6,32.0,30.05,NNE,19,6.0,7.0,77,0.00,,,0.01,LWC V2.10 B1702,2013-03-09 06:13:00,
2013-03-09 01:18:00,38.5,31.6,30.05,NNE,24,8.0,16.0,76,0.00,,,0.01,LWC V2.10 B1702,2013-03-09 06:18:00,
2013-03-09 01:23:00,38.5,31.6,30.05,NNE,23,5.0,13.0,76,0.00,,,0.01,LWC V2.10 B1702,2013-03-09 06:23:00,
2013-03-09 01:28:00,38.5,31.9,30.05,SW,216,2.0,6.0,77,0.00,,,0.01,LWC V2.10 B1702,2013-03-09 06:28:00,
2013-03-09 01:33:00,38.4,31.8,30.05,NE,40,7.0,13.0,77,0.00,,,0.01,LWC V2.10 B1702,2013-03-09 06:33:00,
2013-03-09 01:38:00,38.3,32.1,30.05,NNE,33,2.0,7.0,78,0.00,,,0.01,LWC V2.10 B1702,2013-03-09 06:38:00,
2013-03-09 01:43:00,38.3,32.1,30.05,ENE,68,7.0,8.0,78,0.00,,,0.01,LWC V2.10 B1702,2013-03-09 06:43:00,
2013-03-09 01:48:00,38.3,32.1,30.05,East,80,6.0,15.0,78,0.00,,,0.01,LWC V2.10 B1702,2013-03-09 06:48:00,
2013-03-09 01:53:00,38.3,32.1,30.05,NE,51,7.0,10.0,78,0.00,,,0.01,LWC V2.10 B1702,2013-03-09 06:53:00,
2013-03-09 01:58:00,38.2,32.0,30.05,East,87,7.0,7.0,78,0.00,,,0.01,LWC V2.10 B1702,2013-03-09 06:58:00,
2013-03-09 02:03:00,38.2,32.3,30.05,NE,49,5.0,11.0,79,0.00,,,0.01,LWC V2.10 B1702,2013-03-09 07:03:00,
2013-03-09 02:08:00,38.1,31.9,30.05,NNE,23,2.0,12.0,78,0.00,,,0.01,LWC V2.10 B1702,2013-03-09 07:08:00,
2013-03-09 02:13:00,38.0,31.8,30.05,NE,52,4.0,15.0,78,0.00,,,0.01,LWC V2.10 B1702,2013-03-09 07:13:00,
2013-03-09 02:18:00,38.0,31.8,30.05,East,83,2.0,8.0,78,0.00,,,0.01,LWC V2.10 B1702,2013-03-09 07:18:00,
2013-03-09 02:23:00,38.0,31.8,30.05,ENE,68,7.0,7.0,78,0.00,,,0.01,LWC V2.10 B1702,2013-03-09 07:23:00,
2013-03-09 02:28:00,37.8,31.6,30.05,ESE,110,1.0,11.0,78,0.00,,,0.01,LWC V2.10 B1702,2013-03-09 07:28:00,
2013-03-09 02:33:00,37.8,31.9,30.05,ENE,59,1.0,14.0,79,0.00,,,0.01,LWC V2.10 B1702,2013-03-09 07:33:00,
2013-03-09 02:38:00,37.7,31.8,30.05,NE,39,9.0,11.0,79,0.00,,,0.01,LWC V2.10 B1702,2013-03-09 07:38:00,
2013-03-09 02:43:00,37.8,31.9,30.04,ENE,78,5.0,19.0,79,0.00,,,0.01,LWC V2.10 B1702,2013-03-09 07:43:00,
2013-03-09 02:48:00,37.8,31.6,30.05,East,86,3.0,8.0,78,0.00,,,0.01,LWC V2.10 B1702,2013-03-09 07:48:00,
2013-03-09 02:53:00,37.8,31.2,30.05,ENE,69,5.0,15.0,77,0.00,,,0.01,LWC V2.10 B1702,2013-03-09 07:53:00,
2013-03-09 02:58:00,37.8,31.2,30.05,NE,42,4.0,12.0,77,0.00,,,0.01,LWC V2.10 B1702,2013-03-09 07:58:00,
2013-03-09 03:03:00,37.7,31.2,30.05,East,89,3.0,12.0,77,0.00,,,0.01,LWC V2.10 B1702,2013-03-09 08:03:00,
2013-03-09 03:08:00,37.7,31.2,30.05,NE,35,3.0,6.0,77,0.00,,,0.01,LWC V2.10 B1702,2013-03-09 08:08:00,
2013-03-09 03:13:00,37.7,31.5,30.05,ENE,78,7.0,8.0,78,0.00,,,0.01,LWC V2.10 B1702,2013-03-09 08:13:00,
2013-03-09 03:18:00,37.6,31.4,30.05,NE,46,3.0,5.0,78,0.00,,,0.01,LWC V2.10 B1702,2013-03-09 08:18:00,
2013-03-09 03:23:00,37.4,31.2,30.05,ENE,70,2.0,9.0,78,0.00,,,0.02,LWC V2.10 B1702,2013-03-09 08:23:00,
2013-03-09 03:28:00,37.4,31.5,30.06,NE,54,8.0,8.0,79,0.00,,,0.02,LWC V2.10 B1702,2013-03-09 08:28:00,
2013-03-09 03:33:00,37.4,31.5,30.06,NNE,19,9.0,10.0,79,0.00,,,0.02,LWC V2.10 B1702,2013-03-09 08:33:00,
2013-03-09 03:38:00,37.4,31.5,30.06,NE,51,2.0,8.0,79,0.00,,,0.02,LWC V2.10 B1702,2013-03-09 08:38:00,
2013-03-09 03:43:00,37.3,31.4,30.06,NE,52,4.0,11.0,79,0.00,,,0.02,LWC V2.10 B1702,2013-03-09 08:43:00,
2013-03-09 03:48:00,37.1,31.2,30.06,NE,38,4.0,7.0,79,0.00,,,0.02,LWC V2.10 B1702,2013-03-09 08:48:00,
2013-03-09 03:53:00,37.1,31.5,30.06,East,82,3.0,11.0,80,0.00,,,0.02,LWC V2.10 B1702,2013-03-09 08:53:00,
2013-03-09 03:58:00,37.1,31.5,30.06,ESE,109,3.0,9.0,80,0.00,,,0.02,LWC V2.10 B1702,2013-03-09 08:58:00,
2013-03-09 04:03:00,37.0,31.4,30.07,North,355,0.0,7.0,80,0.00,,,0.02,LWC V2.10 B1702,2013-03-09 09:03:00,
2013-03-09 04:08:00,37.0,31.4,30.07,East,85,5.0,8.0,80,0.00,,,0.02,LWC V2.10 B1702,2013-03-09 09:08:00,
2013-03-09 04:13:00,36.9,31.3,30.07,NE,51,3.0,9.0,80,0.00,,,0.02,LWC V2.10 B1702,2013-03-09 09:13:00,
2013-03-09 04:18:00,36.8,31.2,30.07,ENE,67,4.0,13.0,80,0.00,,,0.02,LWC V2.10 B1702,2013-03-09 09:18:00,
2013-03-09 04:23:00,36.8,31.2,30.07,NE,44,7.0,8.0,80,0.00,,,0.02,LWC V2.10 B1702,2013-03-09 09:23:00,
2013-03-09 04:28:00,36.8,31.2,30.08,NNE,17,15.0,18.0,80,0.00,,,0.02,LWC V2.10 B1702,2013-03-09 09:28:00,
2013-03-09 04:33:00,36.8,30.9,30.08,ENE,69,2.0,10.0,79,0.00,,,0.02,LWC V2.10 B1702,2013-03-09 09:33:00,
2013-03-09 04:38:00,36.7,31.1,30.08,ENE,74,2.0,4.0,80,0.00,,,0.02,LWC V2.10 B1702,2013-03-09 09:38:00,
2013-03-09 04:43:00,36.6,31.0,30.08,NNW,337,6.0,9.0,80,0.00,,,0.02,LWC V2.10 B1702,2013-03-09 09:43:00,
2013-03-09 04:48:00,36.6,31.0,30.08,NNE,14,8.0,12.0,80,0.00,,,0.02,LWC V2.10 B1702,2013-03-09 09:48:00,
2013-03-09 04:53:00,36.5,30.9,30.08,NNE,20,5.0,10.0,80,0.00,,,0.02,LWC V2.10 B1702,2013-03-09 09:53:00,
2013-03-09 04:58:00,36.4,30.8,30.09,NNE,17,1.0,8.0,80,0.00,,,0.02,LWC V2.10 B1702,2013-03-09 09:58:00,
2013-03-09 05:03:00,36.4,31.1,30.09,NNE,29,8.0,8.0,81,0.00,,,0.02,LWC V2.10 B1702,2013-03-09 10:03:00,
2013-03-09 05:08:00,36.3,31.0,30.09,East,82,3.0,7.0,81,0.00,,,0.02,LWC V2.10 B1702,2013-03-09 10:08:00,
2013-03-09 05:13:00,36.2,30.9,30.09,NE,40,10.0,10.0,81,0.00,,,0.02,LWC V2.10 B1702,2013-03-09 10:13:00,
2013-03-09 05:18:00,36.1,30.8,30.09,NE,50,3.0,10.0,81,0.00,,,0.02,LWC V2.10 B1702,2013-03-09 10:18:00,
2013-03-09 05:23:00,36.1,31.1,30.09,ENE,70,7.0,7.0,82,0.00,,,0.02,LWC V2.10 B1702,2013-03-09 10:23:00,
2013-03-09 05:28:00,36.0,31.0,30.09,East,92,3.0,5.0,82,0.00,,,0.02,LWC V2.10 B1702,2013-03-09 10:28:00,
2013-03-09 05:33:00,36.0,31.0,30.09,North,5,7.0,10.0,82,0.00,,,0.02,LWC V2.10 B1702,2013-03-09 10:33:00,
2013-03-09 05:38:00,36.0,31.0,30.09,ENE,64,7.0,11.0,82,0.00,,,0.02,LWC V2.10 B1702,2013-03-09 10:38:00,
2013-03-09 05:43:00,36.0,31.0,30.09,NE,55,3.0,10.0,82,0.00,,,0.02,LWC V2.10 B1702,2013-03-09 10:43:00,
2013-03-09 05:48:00,36.1,31.1,30.10,NE,39,10.0,10.0,82,0.00,,,0.02,LWC V2.10 B1702,2013-03-09 10:48:00,
2013-03-09 05:53:00,36.1,31.1,30.10,NNE,26,4.0,15.0,82,0.00,,,0.02,LWC V2.10 B1702,2013-03-09 10:53:00,
2013-03-09 05:58:00,36.2,31.2,30.10,ENE,74,5.0,8.0,82,0.00,,,0.02,LWC V2.10 B1702,2013-03-09 10:58:00,
2013-03-09 06:03:00,36.2,31.2,30.11,East,87,5.0,8.0,82,0.00,,,0.02,LWC V2.10 B1702,2013-03-09 11:03:00,
2013-03-09 06:08:00,36.3,31.3,30.11,NNE,30,5.0,8.0,82,0.00,,,0.02,LWC V2.10 B1702,2013-03-09 11:08:00,
2013-03-09 06:13:00,36.3,31.3,30.11,ENE,63,8.0,8.0,82,0.00,,,0.02,LWC V2.10 B1702,2013-03-09 11:13:00,
2013-03-09 06:18:00,36.4,31.4,30.11,NNE,15,11.0,11.0,82,0.00,,,0.02,LWC V2.10 B1702,2013-03-09 11:18:00,
2013-03-09 06:23:00,36.4,31.4,30.12,NNE,23,3.0,9.0,82,0.00,,,0.02,LWC V2.10 B1702,2013-03-09 11:23:00,
2013-03-09 06:28:00,36.4,31.4,30.12,ENE,62,7.0,9.0,82,0.00,,,0.02,LWC V2.10 B1702,2013-03-09 11:28:00,
2013-03-09 06:33:00,36.5,31.5,30.12,NNE,15,5.0,5.0,82,0.00,,,0.02,LWC V2.10 B1702,2013-03-09 11:33:00,
2013-03-09 06:38:00,36.5,31.5,30.12,ENE,68,5.0,10.0,82,0.00,,,0.02,LWC V2.10 B1702,2013-03-09 11:38:00,
2013-03-09 06:43:00,36.6,31.6,30.13,East,82,1.0,12.0,82,0.00,,,0.02,LWC V2.10 B1702,2013-03-09 11:43:00,
2013-03-09 06:48:00,36.6,31.6,30.13,ENE,61,2.0,5.0,82,0.00,,,0.02,LWC V2.10 B1702,2013-03-09 11:48:00,
2013-03-09 06:53:00,36.7,31.7,30.13,NE,44,13.0,13.0,82,0.00,,,0.02,LWC V2.10 B1702,2013-03-09 11:53:00,
2013-03-09 06:58:00,36.8,31.8,30.13,NNE,23,5.0,8.0,82,0.00,,,0.02,LWC V2.10 B1702,2013-03-09 11:58:00,
2013-03-09 07:03:00,36.8,31.8,30.13,NE,51,3.0,12.0,82,0.00,,,0.02,LWC V2.10 B1702,2013-03-09 12:03:00,
2013-03-09 07:08:00,36.8,31.8,30.14,NE,46,9.0,11.0,82,0.00,,,0.02,LWC V2.10 B1702,2013-03-09 12:08:00,
2013-03-09 07:13:00,36.9,31.9,30.14,ESE,104,5.0,11.0,82,0.00,,,0.02,LWC V2.10 B1702,2013-03-09 12:13:00,
2013-03-09 07:18:00,36.9,31.9,30.14,ENE,68,5.0,5.0,82,0.00,,,0.02,LWC V2.10 B1702,2013-03-09 12:18:00,
2013-03-09 07:23:00,36.9,31.6,30.14,ENE,63,3.0,7.0,81,0.00,,,0.02,LWC V2.10 B1702,2013-03-09 12:23:00,
2013-03-09 07:28:00,36.9,31.6,30.14,ENE,57,4.0,16.0,81,0.00,,,0.02,LWC V2.10 B1702,2013-03-09 12:28:00,
2013-03-09 07:33:00,37.0,31.7,30.14,NE,51,3.0,12.0,81,0.00,,,0.02,LWC V2.10 B1702,2013-03-09 12:33:00,
2013-03-09 07:38:00,37.1,31.5,30.14,NE,48,2.0,17.0,80,0.00,,,0.03,LWC V2.10 B1702,2013-03-09 12:38:00,
2013-03-09 07:43:00,37.1,31.8,30.15,NNE,18,10.0,10.0,81,0.00,,,0.03,LWC V2.10 B1702,2013-03-09 12:43:00,
2013-03-09 07:48:00,37.3,32.0,30.15,NE,38,3.0,10.0,81,0.00,,,0.03,LWC V2.10 B1702,2013-03-09 12:48:00,
2013-03-09 07:53:00,37.3,32.0,30.15,NE,42,3.0,8.0,81,0.00,,,0.03,LWC V2.10 B1702,2013-03-09 12:53:00,
2013-03-09 07:58:00,37.4,31.8,30.15,ESE,102,1.0,13.0,80,0.00,,,0.03,LWC V2.10 B1702,2013-03-09 12:58:00,
2013-03-09 08:03:00,37.4,31.8,30.15,NE,41,8.0,16.0,80,0.00,,,0.03,LWC V2.10 B1702,2013-03-09 13:03:00,
2013-03-09 08:08:00,37.5,31.9,30.16,NE,47,2.0,10.0,80,0.00,,,0.03,LWC V2.10 B1702,2013-03-09 13:08:00,
2013-03-09 08:13:00,37.5,31.9,30.16,ENE,76,5.0,18.0,80,0.00,,,0.04,LWC V2.10 B1702,2013-03-09 13:13:00,
2013-03-09 08:18:00,37.5,31.9,30.16,NE,55,3.0,9.0,80,0.00,,,0.04,LWC V2.10 B1702,2013-03-09 13:18:00,
2013-03-09 08:23:00,37.6,32.0,30.16,NE,56,3.0,13.0,80,0.00,,,0.04,LWC V2.10 B1702,2013-03-09 13:23:00,
2013-03-09 08:28:00,37.7,32.4,30.17,ENE,68,2.0,6.0,81,0.00,,,0.04,LWC V2.10 B1702,2013-03-09 13:28:00,
2013-03-09 08:33:00,37.7,32.1,30.17,NNE,18,5.0,9.0,80,0.00,,,0.04,LWC V2.10 B1702,2013-03-09 13:33:00,
2013-03-09 08:38:00,37.9,32.3,30.17,NE,40,5.0,10.0,80,0.00,,,0.04,LWC V2.10 B1702,2013-03-09 13:38:00,
2013-03-09 08:43:00,38.0,32.4,30.17,North,5,6.0,7.0,80,0.00,,,0.05,LWC V2.10 B1702,2013-03-09 13:43:00,
2013-03-09 08:48:00,38.1,32.5,30.17,ENE,78,7.0,7.0,80,0.00,,,0.05,LWC V2.10 B1702,2013-03-09 13:48:00,
2013-03-09 08:53:00,38.1,32.5,30.16,NE,36,4.0,11.0,80,0.00,,,0.05,LWC V2.10 B1702,2013-03-09 13:53:00,
2013-03-09 08:58:00,38.1,32.5,30.16,NE,53,5.0,10.0,80,0.00,,,0.05,LWC V2.10 B1702,2013-03-09 13:58:00,
2013-03-09 09:03:00,38.1,32.5,30.16,ENE,74,5.0,8.0,80,0.00,,,0.06,LWC V2.10 B1702,2013-03-09 14:03:00,
2013-03-09 09:08:00,38.2,32.6,30.16,East,82,3.0,14.0,80,0.00,,,0.06,LWC V2.10 B1702,2013-03-09 14:08:00,
2013-03-09 09:13:00,38.3,32.7,30.16,NNE,15,4.0,15.0,80,0.00,,,0.06,LWC V2.10 B1702,2013-03-09 14:13:00,
2013-03-09 09:18:00,38.4,32.8,30.16,NE,52,3.0,13.0,80,0.00,,,0.06,LWC V2.10 B1702,2013-03-09 14:18:00,
2013-03-09 09:23:00,38.7,33.1,30.16,ENE,63,4.0,11.0,80,0.00,,,0.07,LWC V2.10 B1702,2013-03-09 14:23:00,
2013-03-09 09:28:00,38.9,33.3,30.17,NNE,22,9.0,12.0,80,0.00,,,0.07,LWC V2.10 B1702,2013-03-09 14:28:00,
2013-03-09 09:33:00,38.8,32.9,30.17,North,5,3.0,14.0,79,0.00,,,0.07,LWC V2.10 B1702,2013-03-09 14:33:00,
2013-03-09 09:38:00,38.8,33.2,30.17,ENE,70,7.0,10.0,80,0.04,,,0.08,LWC V2.10 B1702,2013-03-09 14:38:00,
2013-03-09 09:43:00,38.9,33.3,30.17,ENE,60,7.0,10.0,80,0.04,,,0.08,LWC V2.10 B1702,2013-03-09 14:43:00,
2013-03-09 09:48:00,38.9,33.0,30.17,NE,44,12.0,13.0,79,0.04,,,0.08,LWC V2.10 B1702,2013-03-09 14:48:00,
2013-03-09 09:53:00,38.8,32.9,30.17,NNE,31,12.0,15.0,79,0.00,,,0.08,LWC V2.10 B1702,2013-03-09 14:53:00,
2013-03-09 09:58:00,38.9,33.0,30.17,East,95,9.0,18.0,79,0.00,,,0.09,LWC V2.10 B1702,2013-03-09 14:58:00,
2013-03-09 10:03:00,39.0,33.4,30.17,East,88,3.0,10.0,80,0.00,,,0.09,LWC V2.10 B1702,2013-03-09 15:03:00,
2013-03-09 10:08:00,39.3,33.7,30.17,NE,52,3.0,4.0,80,0.05,,,0.10,LWC V2.10 B1702,2013-03-09 15:08:00,
2013-03-09 10:13:00,39.9,33.9,30.17,East,80,9.0,9.0,79,0.05,,,0.10,LWC V2.10 B1702,2013-03-09 15:13:00,
2013-03-09 10:18:00,40.1,33.8,30.18,NNE,20,7.0,11.0,78,0.05,,,0.10,LWC V2.10 B1702,2013-03-09 15:18:00,
2013-03-09 10:23:00,40.0,33.7,30.18,NE,35,5.0,12.0,78,0.04,,,0.10,LWC V2.10 B1702,2013-03-09 15:23:00,
2013-03-09 10:28:00,40.0,33.7,30.18,NE,36,4.0,7.0,78,0.04,,,0.11,LWC V2.10 B1702,2013-03-09 15:28:00,
2013-03-09 10:33:00,39.9,33.6,30.18,ENE,63,4.0,12.0,78,0.04,,,0.11,LWC V2.10 B1702,2013-03-09 15:33:00,
2013-03-09 10:38:00,40.0,33.7,30.18,ENE,76,8.0,9.0,78,0.04,,,0.11,LWC V2.10 B1702,2013-03-09 15:38:00,
2013-03-09 10:43:00,40.2,33.6,30.18,ENE,69,3.0,14.0,77,0.04,,,0.12,LWC V2.10 B1702,2013-03-09 15:43:00,
2013-03-09 10:48:00,40.4,34.1,30.18,ENE,76,9.0,14.0,78,0.04,,,0.12,LWC V2.10 B1702,2013-03-09 15:48:00,
2013-03-09 10:53:00,40.5,33.9,30.17,NNE,26,3.0,14.0,77,0.04,,,0.12,LWC V2.10 B1702,2013-03-09 15:53:00,
2013-03-09 10:58:00,40.7,34.4,30.18,ENE,65,8.0,14.0,78,0.00,,,0.12,LWC V2.10 B1702,2013-03-09 15:58:00,
2013-03-09 11:03:00,41.0,34.0,30.18,NE,53,5.0,12.0,76,0.00,,,0.13,LWC V2.10 B1702,2013-03-09 16:03:00,
2013-03-09 11:08:00,40.9,33.9,30.18,North,355,7.0,11.0,76,0.00,,,0.13,LWC V2.10 B1702,2013-03-09 16:08:00,
2013-03-09 11:13:00,40.8,33.8,30.18,SE,139,6.0,14.0,76,0.00,,,0.13,LWC V2.10 B1702,2013-03-09 16:13:00,
2013-03-09 11:18:00,41.0,34.0,30.19,North,0,4.0,16.0,76,0.00,,,0.14,LWC V2.10 B1702,2013-03-09 16:18:00,
2013-03-09 11:23:00,40.7,33.4,30.19,NE,50,7.0,18.0,75,0.00,,,0.14,LWC V2.10 B1702,2013-03-09 16:23:00,
2013-03-09 11:28:00,40.7,33.7,30.19,East,90,7.0,9.0,76,0.00,,,0.14,LWC V2.10 B1702,2013-03-09 16:28:00,
2013-03-09 11:33:00,41.1,34.1,30.19,North,5,1.0,15.0,76,0.00,,,0.14,LWC V2.10 B1702,2013-03-09 16:33:00,
2013-03-09 11:38:00,40.9,33.9,30.19,NNE,13,5.0,7.0,76,0.00,,,0.14,LWC V2.10 B1702,2013-03-09 16:38:00,
2013-03-09 11:43:00,41.3,34.3,30.19,NNE,22,5.0,10.0,76,0.00,,,0.14,LWC V2.10 B1702,2013-03-09 16:43:00,
2013-03-09 11:48:00,41.9,34.9,30.19,NNE,30,7.0,10.0,76,0.00,,,0.14,LWC V2.10 B1702,2013-03-09 16:48:00,
2013-03-09 11:53:00,42.3,35.0,30.19,ENE,72,7.0,11.0,75,0.00,,,0.15,LWC V2.10 B1702,2013-03-09 16:53:00,
2013-03-09 11:58:00,42.4,34.7,30.19,NE,43,8.0,13.0,74,0.00,,,0.15,LWC V2.10 B1702,2013-03-09 16:58:00,
2013-03-09 12:03:00,42.5,35.1,30.19,NE,36,8.0,9.0,75,0.00,,,0.15,LWC V2.10 B1702,2013-03-09 17:03:00,
2013-03-09 12:08:00,42.7,34.7,30.19,ENE,65,4.0,19.0,73,0.00,,,0.15,LWC V2.10 B1702,2013-03-09 17:08:00,
2013-03-09 12:13:00,42.1,34.4,30.19,East,84,3.0,14.0,74,0.00,,,0.15,LWC V2.10 B1702,2013-03-09 17:13:00,
2013-03-09 12:18:00,41.5,33.8,30.20,East,86,11.0,11.0,74,0.00,,,0.15,LWC V2.10 B1702,2013-03-09 17:18:00,
2013-03-09 12:23:00,41.2,34.2,30.20,NNE,13,4.0,16.0,76,0.00,,,0.15,LWC V2.10 B1702,2013-03-09 17:23:00,
2013-03-09 12:28:00,41.5,34.2,30.20,East,87,5.0,13.0,75,0.00,,,0.15,LWC V2.10 B1702,2013-03-09 17:28:00,
2013-03-09 12:33:00,41.5,34.2,30.20,NE,49,3.0,12.0,75,0.00,,,0.15,LWC V2.10 B1702,2013-03-09 17:33:00,
2013-03-09 12:38:00,41.5,34.2,30.20,ENE,69,0.0,11.0,75,0.00,,,0.15,LWC V2.10 B1702,2013-03-09 17:38:00,
2013-03-09 12:43:00,41.9,34.6,30.20,NNE,26,11.0,11.0,75,0.00,,,0.15,LWC V2.10 B1702,2013-03-09 17:43:00,
2013-03-09 12:48:00,42.0,34.0,30.20,NE,36,8.0,13.0,73,0.00,,,0.15,LWC V2.10 B1702,2013-03-09 17:48:00,
2013-03-09 12:53:00,41.5,33.8,30.20,North,5,3.0,16.0,74,0.00,,,0.15,LWC V2.10 B1702,2013-03-09 17:53:00,
2013-03-09 12:58:00,41.5,34.2,30.20,East,80,3.0,10.0,75,0.00,,,0.15,LWC V2.10 B1702,2013-03-09 17:58:00,
2013-03-09 13:03:00,41.3,34.0,30.20,SE,124,4.0,10.0,75,0.00,,,0.15,LWC V2.10 B1702,2013-03-09 18:03:00,
2013-03-09 13:08:00,41.2,33.9,30.21,NNE,21,3.0,12.0,75,0.00,,,0.15,LWC V2.10 B1702,2013-03-09 18:08:00,
2013-03-09 13:13:00,40.9,33.6,30.21,NNE,22,2.0,14.0,75,0.00,,,0.15,LWC V2.10 B1702,2013-03-09 18:13:00,
2013-03-09 13:18:00,40.6,34.0,30.21,NE,42,4.0,11.0,77,0.00,,,0.15,LWC V2.10 B1702,2013-03-09 18:18:00,
2013-03-09 13:23:00,40.3,33.3,30.21,ENE,59,8.0,15.0,76,0.00,,,0.15,LWC V2.10 B1702,2013-03-09 18:23:00,
2013-03-09 13:28:00,40.4,33.8,30.21,East,80,3.0,8.0,77,0.00,,,0.15,LWC V2.10 B1702,2013-03-09 18:28:00,
2013-03-09 13:33:00,40.6,33.6,30.21,NNE,22,8.0,8.0,76,0.00,,,0.15,LWC V2.10 B1702,2013-03-09 18:33:00,
2013-03-09 13:38:00,40.5,33.9,30.21,ENE,64,0.0,4.0,77,0.00,,,0.15,LWC V2.10 B1702,2013-03-09 18:38:00,
2013-03-09 13:43:00,40.6,33.6,30.20,North,0,5.0,10.0,76,0.00,,,0.15,LWC V2.10 B1702,2013-03-09 18:43:00,
2013-03-09 13:48:00,40.6,33.6,30.20,ESE,102,4.0,13.0,76,0.00,,,0.15,LWC V2.10 B1702,2013-03-09 18:48:00,
2013-03-09 13:53:00,40.7,33.7,30.21,NNE,25,4.0,13.0,76,0.00,,,0.15,LWC V2.10 B1702,2013-03-09 18:53:00,
2013-03-09 13:58:00,40.5,33.5,30.20,East,88,3.0,17.0,76,0.00,,,0.15,LWC V2.10 B1702,2013-03-09 18:58:00,
2013-03-09 14:03:00,40.5,33.5,30.21,North,5,9.0,12.0,76,0.00,,,0.15,LWC V2.10 B1702,2013-03-09 19:03:00,
2013-03-09 14:08:00,40.4,33.8,30.21,ENE,76,7.0,9.0,77,0.00,,,0.15,LWC V2.10 B1702,2013-03-09 19:08:00,
2013-03-09 14:13:00,40.4,33.8,30.20,North,0,3.0,13.0,77,0.00,,,0.15,LWC V2.10 B1702,2013-03-09 19:13:00,
2013-03-09 14:18:00,40.4,34.1,30.21,North,5,5.0,7.0,78,0.00,,,0.15,LWC V2.10 B1702,2013-03-09 19:18:00,
2013-03-09 14:24:00,40.4,33.8,30.21,NE,53,3.0,5.0,77,0.00,,,0.15,LWC V2.10 B1702,2013-03-09 19:24:00,
2013-03-09 14:29:00,40.3,33.7,30.21,NE,46,1.0,10.0,77,0.00,,,0.15,LWC V2.10 B1702,2013-03-09 19:29:00,
2013-03-09 14:34:00,40.3,33.7,30.21,ENE,76,1.0,8.0,77,0.00,,,0.15,LWC V2.10 B1702,2013-03-09 19:34:00,
2013-03-09 14:39:00,40.0,33.4,30.21,ENE,62,9.0,16.0,77,0.00,,,0.15,LWC V2.10 B1702,2013-03-09 19:39:00,
2013-03-09 14:44:00,39.9,33.6,30.21,ENE,69,9.0,11.0,78,0.00,,,0.15,LWC V2.10 B1702,2013-03-09 19:44:00,
2013-03-09 14:49:00,39.9,33.6,30.21,East,95,9.0,12.0,78,0.00,,,0.15,LWC V2.10 B1702,2013-03-09 19:49:00,
2013-03-09 14:54:00,40.1,33.8,30.21,ENE,57,0.0,7.0,78,0.00,,,0.15,LWC V2.10 B1702,2013-03-09 19:54:00,
2013-03-09 14:59:00,40.6,34.0,30.21,ESE,108,2.0,11.0,77,0.00,,,0.15,LWC V2.10 B1702,2013-03-09 19:59:00,
2013-03-09 15:04:00,40.7,33.7,30.21,NNE,13,5.0,8.0,76,0.00,,,0.15,LWC V2.10 B1702,2013-03-09 20:04:00,
2013-03-09 15:09:00,40.8,33.5,30.22,ESE,106,4.0,7.0,75,0.00,,,0.15,LWC V2.10 B1702,2013-03-09 20:09:00,
2013-03-09 15:14:00,41.0,34.0,30.21,NE,47,4.0,5.0,76,0.00,,,0.15,LWC V2.10 B1702,2013-03-09 20:14:00,
2013-03-09 15:19:00,41.2,33.9,30.21,East,88,6.0,10.0,75,0.00,,,0.15,LWC V2.10 B1702,2013-03-09 20:19:00,
2013-03-09 15:24:00,41.3,33.6,30.21,NE,47,4.0,6.0,74,0.00,,,0.15,LWC V2.10 B1702,2013-03-09 20:24:00,
2013-03-09 15:29:00,41.3,33.6,30.22,ENE,74,4.0,11.0,74,0.00,,,0.15,LWC V2.10 B1702,2013-03-09 20:29:00,
2013-03-09 15:34:00,41.3,33.6,30.21,NE,36,6.0,7.0,74,0.00,,,0.15,LWC V2.10 B1702,2013-03-09 20:34:00,
2013-03-09 15:39:00,41.3,33.6,30.21,ENE,69,2.0,10.0,74,0.00,,,0.15,LWC V2.10 B1702,2013-03-09 20:39:00,
2013-03-09 15:44:00,41.4,33.7,30.22,ENE,78,4.0,5.0,74,0.00,,,0.15,LWC V2.10 B1702,2013-03-09 20:44:00,
2013-03-09 15:49:00,41.5,33.8,30.21,ENE,71,2.0,7.0,74,0.00,,,0.15,LWC V2.10 B1702,2013-03-09 20:49:00,
2013-03-09 15:54:00,41.4,33.7,30.22,ENE,76,5.0,13.0,74,0.00,,,0.15,LWC V2.10 B1702,2013-03-09 20:54:00,
2013-03-09 15:59:00,40.9,33.3,30.22,SE,128,5.0,5.0,74,0.00,,,0.15,LWC V2.10 B1702,2013-03-09 20:59:00,
2013-03-09 16:04:00,40.8,33.5,30.22,East,91,3.0,7.0,75,0.00,,,0.15,LWC V2.10 B1702,2013-03-09 21:04:00,
2013-03-09 16:09:00,40.6,33.3,30.22,ENE,78,5.0,9.0,75,0.00,,,0.15,LWC V2.10 B1702,2013-03-09 21:09:00,
2013-03-09 16:14:00,40.4,32.8,30.22,North,5,3.0,9.0,74,0.00,,,0.15,LWC V2.10 B1702,2013-03-09 21:14:00,
2013-03-09 16:19:00,40.2,32.9,30.22,ENE,78,2.0,5.0,75,0.00,,,0.15,LWC V2.10 B1702,2013-03-09 21:19:00,
2013-03-09 16:24:00,40.2,33.2,30.22,NE,37,10.0,10.0,76,0.00,,,0.15,LWC V2.10 B1702,2013-03-09 21:24:00,
2013-03-09 16:29:00,40.1,33.5,30.22,ENE,57,4.0,7.0,77,0.00,,,0.15,LWC V2.10 B1702,2013-03-09 21:29:00,
2013-03-09 16:34:00,39.8,33.2,30.22,ENE,68,3.0,5.0,77,0.00,,,0.15,LWC V2.10 B1702,2013-03-09 21:34:00,
2013-03-09 16:39:00,39.7,33.1,30.23,NNE,13,1.0,9.0,77,0.00,,,0.15,LWC V2.10 B1702,2013-03-09 21:39:00,
2013-03-09 16:44:00,39.6,32.7,30.23,East,84,7.0,8.0,76,0.00,,,0.15,LWC V2.10 B1702,2013-03-09 21:44:00,
2013-03-09 16:49:00,39.2,32.3,30.23,ENE,59,3.0,7.0,76,0.00,,,0.15,LWC V2.10 B1702,2013-03-09 21:49:00,
2013-03-09 16:54:00,38.9,32.3,30.23,East,79,6.0,6.0,77,0.00,,,0.15,LWC V2.10 B1702,2013-03-09 21:54:00,
2013-03-09 16:59:00,38.6,32.3,30.23,ENE,73,2.0,9.0,78,0.00,,,0.15,LWC V2.10 B1702,2013-03-09 21:59:00,
2013-03-09 17:04:00,38.2,32.3,30.23,East,92,2.0,9.0,79,0.00,,,0.15,LWC V2.10 B1702,2013-03-09 22:04:00,
2013-03-09 17:09:00,38.0,32.4,30.24,NE,37,7.0,7.0,80,0.00,,,0.15,LWC V2.10 B1702,2013-03-09 22:09:00,
2013-03-09 17:14:00,37.9,32.3,30.24,ENE,65,3.0,7.0,80,0.00,,,0.15,LWC V2.10 B1702,2013-03-09 22:14:00,
2013-03-09 17:19:00,37.7,31.8,30.24,ENE,76,1.0,3.0,79,0.00,,,0.15,LWC V2.10 B1702,2013-03-09 22:19:00,
2013-03-09 17:24:00,37.5,31.9,30.24,East,81,6.0,6.0,80,0.00,,,0.15,LWC V2.10 B1702,2013-03-09 22:24:00,
2013-03-09 17:29:00,37.3,31.7,30.24,East,90,1.0,4.0,80,0.00,,,0.15,LWC V2.10 B1702,2013-03-09 22:29:00,
2013-03-09 17:34:00,37.2,31.9,30.25,East,80,2.0,2.0,81,0.00,,,0.15,LWC V2.10 B1702,2013-03-09 22:34:00,
2013-03-09 17:39:00,37.0,31.7,30.25,East,89,1.0,3.0,81,0.00,,,0.15,LWC V2.10 B1702,2013-03-09 22:39:00,
2013-03-09 17:44:00,36.8,31.8,30.25,ESE,104,1.0,3.0,82,0.00,,,0.15,LWC V2.10 B1702,2013-03-09 22:44:00,
2013-03-09 17:49:00,36.6,31.6,30.26,ENE,78,1.0,3.0,82,0.00,,,0.15,LWC V2.10 B1702,2013-03-09 22:49:00,
2013-03-09 17:54:00,36.5,31.8,30.26,ENE,65,1.0,1.0,83,0.00,,,0.15,LWC V2.10 B1702,2013-03-09 22:54:00,
2013-03-09 17:59:00,36.2,31.5,30.26,ENE,74,1.0,4.0,83,0.00,,,0.15,LWC V2.10 B1702,2013-03-09 22:59:00,
2013-03-09 18:04:00,36.1,31.4,30.26,North,355,0.0,4.0,83,0.00,,,0.15,LWC V2.10 B1702,2013-03-09 23:04:00,
2013-03-09 18:09:00,36.0,31.6,30.26,NE,40,4.0,4.0,84,0.00,,,0.15,LWC V2.10 B1702,2013-03-09 23:09:00,
2013-03-09 18:14:00,35.8,31.4,30.27,North,9,5.0,5.0,84,0.00,,,0.15,LWC V2.10 B1702,2013-03-09 23:14:00,
2013-03-09 18:19:00,35.6,31.3,30.27,NE,36,1.0,1.0,84,0.00,,,0.15,LWC V2.10 B1702,2013-03-09 23:19:00,
2013-03-09 18:24:00,35.5,31.2,30.27,ENE,76,0.0,0.0,84,0.00,,,0.15,LWC V2.10 B1702,2013-03-09 23:24:00,
2013-03-09 18:29:00,35.9,32.7,30.27,ENE,69,1.0,3.0,88,0.00,,,0.15,LWC V2.10 B1702,2013-03-09 23:29:00,
2013-03-09 18:34:00,36.2,32.7,30.28,ENE,78,2.0,3.0,87,0.00,,,0.15,LWC V2.10 B1702,2013-03-09 23:34:00,
2013-03-09 18:39:00,36.2,32.4,30.28,East,84,0.0,1.0,86,0.00,,,0.15,LWC V2.10 B1702,2013-03-09 23:39:00,
2013-03-09 18:44:00,36.0,31.9,30.28,ENE,62,0.0,1.0,85,0.00,,,0.15,LWC V2.10 B1702,2013-03-09 23:44:00,
2013-03-09 18:49:00,35.7,31.6,30.28,East,100,0.0,0.0,85,0.00,,,0.15,LWC V2.10 B1702,2013-03-09 23:49:00,
2013-03-09 18:54:00,35.5,31.2,30.28,ENE,77,0.0,0.0,84,0.00,,,0.15,LWC V2.10 B1702,2013-03-09 23:54:00,
2013-03-09 18:59:00,35.3,31.0,30.28,ENE,77,0.0,1.0,84,0.00,,,0.15,LWC V2.10 B1702,2013-03-09 23:59:00,
2013-03-09 19:04:00,35.1,31.1,30.28,ENE,74,0.0,2.0,85,0.00,,,0.15,LWC V2.10 B1702,2013-03-10 00:04:00,
2013-03-09 19:09:00,34.8,30.8,30.28,ENE,74,0.0,0.0,85,0.00,,,0.15,LWC V2.10 B1702,2013-03-10 00:09:00,
2013-03-09 19:14:00,34.6,30.6,30.28,ENE,74,0.0,0.0,85,0.00,,,0.15,LWC V2.10 B1702,2013-03-10 00:14:00,
2013-03-09 19:19:00,34.4,30.4,30.27,ENE,74,1.0,1.0,85,0.00,,,0.15,LWC V2.10 B1702,2013-03-10 00:19:00,
2013-03-09 19:24:00,34.3,30.6,30.27,ENE,74,0.0,2.0,86,0.00,,,0.15,LWC V2.10 B1702,2013-03-10 00:24:00,
2013-03-09 19:29:00,34.1,30.4,30.28,ENE,74,0.0,1.0,86,0.00,,,0.15,LWC V2.10 B1702,2013-03-10 00:29:00,
2013-03-09 19:34:00,34.0,30.3,30.28,ENE,74,0.0,1.0,86,0.00,,,0.15,LWC V2.10 B1702,2013-03-10 00:34:00,
2013-03-09 19:39:00,33.9,30.2,30.28,ENE,74,0.0,1.0,86,0.00,,,0.15,LWC V2.10 B1702,2013-03-10 00:39:00,
2013-03-09 19:44:00,33.8,30.3,30.28,ENE,74,0.0,1.0,87,0.00,,,0.15,LWC V2.10 B1702,2013-03-10 00:44:00,
2013-03-09 19:49:00,33.7,30.2,30.28,ENE,74,1.0,1.0,87,0.00,,,0.15,LWC V2.10 B1702,2013-03-10 00:49:00,
2013-03-09 19:54:00,33.7,30.2,30.28,ENE,74,1.0,1.0,87,0.00,,,0.15,LWC V2.10 B1702,2013-03-10 00:54:00,
2013-03-09 19:59:00,33.6,30.2,30.28,ENE,74,0.0,1.0,87,0.00,,,0.15,LWC V2.10 B1702,2013-03-10 00:59:00,
2013-03-09 20:04:00,33.5,30.3,30.28,ENE,76,1.0,2.0,88,0.00,,,0.15,LWC V2.10 B1702,2013-03-10 01:04:00,
2013-03-09 20:09:00,33.5,30.3,30.28,ENE,63,0.0,2.0,88,0.00,,,0.15,LWC V2.10 B1702,2013-03-10 01:09:00,
2013-03-09 20:14:00,33.5,30.3,30.28,NE,56,0.0,2.0,88,0.00,,,0.15,LWC V2.10 B1702,2013-03-10 01:14:00,
2013-03-09 20:19:00,33.5,30.3,30.28,East,86,0.0,1.0,88,0.00,,,0.15,LWC V2.10 B1702,2013-03-10 01:19:00,
2013-03-09 20:24:00,33.5,30.3,30.28,East,94,0.0,2.0,88,0.00,,,0.15,LWC V2.10 B1702,2013-03-10 01:24:00,
2013-03-09 20:29:00,33.5,30.3,30.28,East,94,0.0,0.0,88,0.00,,,0.15,LWC V2.10 B1702,2013-03-10 01:29:00,
2013-03-09 20:34:00,33.5,30.3,30.28,ENE,69,0.0,0.0,88,0.00,,,0.15,LWC V2.10 B1702,2013-03-10 01:34:00,
2013-03-09 20:39:00,33.5,30.3,30.28,ENE,69,0.0,0.0,88,0.00,,,0.15,LWC V2.10 B1702,2013-03-10 01:39:00,
2013-03-09 20:44:00,33.5,30.6,30.28,ENE,68,0.0,0.0,89,0.00,,,0.15,LWC V2.10 B1702,2013-03-10 01:44:00,
2013-03-09 20:49:00,33.5,30.6,30.28,ENE,68,0.0,1.0,89,0.00,,,0.15,LWC V2.10 B1702,2013-03-10 01:49:00,
2013-03-09 20:54:00,33.4,30.5,30.28,ENE,61,0.0,3.0,89,0.00,,,0.15,LWC V2.10 B1702,2013-03-10 01:54:00,
2013-03-09 20:59:00,33.4,30.5,30.29,ENE,61,0.0,0.0,89,0.00,,,0.15,LWC V2.10 B1702,2013-03-10 01:59:00,
2013-03-09 21:04:00,33.4,30.5,30.29,ENE,60,0.0,0.0,89,0.00,,,0.15,LWC V2.10 B1702,2013-03-10 02:04:00,
2013-03-09 21:09:00,33.4,30.5,30.29,ENE,60,0.0,0.0,89,0.00,,,0.15,LWC V2.10 B1702,2013-03-10 02:09:00,
2013-03-09 21:14:00,33.4,30.5,30.29,ENE,60,0.0,0.0,89,0.00,,,0.15,LWC V2.10 B1702,2013-03-10 02:14:00,
2013-03-09 21:19:00,33.3,30.4,30.29,ENE,60,0.0,1.0,89,0.00,,,0.15,LWC V2.10 B1702,2013-03-10 02:19:00,
2013-03-09 21:24:00,33.3,30.4,30.29,NNE,25,0.0,2.0,89,0.00,,,0.15,LWC V2.10 B1702,2013-03-10 02:24:00,
2013-03-09 21:29:00,33.4,30.5,30.29,NE,35,0.0,0.0,89,0.00,,,0.15,LWC V2.10 B1702,2013-03-10 02:29:00,
2013-03-09 21:34:00,33.3,30.4,30.29,NE,46,0.0,1.0,89,0.00,,,0.15,LWC V2.10 B1702,2013-03-10 02:34:00,
2013-03-09 21:39:00,33.4,30.8,30.29,NE,46,2.0,2.0,90,0.00,,,0.15,LWC V2.10 B1702,2013-03-10 02:39:00,
2013-03-09 21:44:00,33.3,30.7,30.29,NE,46,0.0,1.0,90,0.00,,,0.15,LWC V2.10 B1702,2013-03-10 02:44:00,
2013-03-09 21:49:00,33.4,30.8,30.29,NE,46,0.0,0.0,90,0.00,,,0.15,LWC V2.10 B1702,2013-03-10 02:49:00,
2013-03-09 21:54:00,33.4,30.8,30.30,ENE,65,0.0,1.0,90,0.00,,,0.15,LWC V2.10 B1702,2013-03-10 02:54:00,
2013-03-09 21:59:00,33.3,30.7,30.30,ENE,64,0.0,0.0,90,0.00,,,0.15,LWC V2.10 B1702,2013-03-10 02:59:00,
2013-03-09 22:04:00,33.3,30.7,30.30,ENE,64,0.0,0.0,90,0.00,,,0.15,LWC V2.10 B1702,2013-03-10 03:04:00,
2013-03-09 22:09:00,33.3,30.7,30.30,ENE,64,0.0,0.0,90,0.00,,,0.15,LWC V2.10 B1702,2013-03-10 03:09:00,
2013-03-09 22:14:00,33.1,30.2,30.30,ENE,64,0.0,0.0,89,0.00,,,0.15,LWC V2.10 B1702,2013-03-10 03:14:00,
2013-03-09 22:19:00,32.9,30.0,30.30,ENE,64,0.0,0.0,89,0.00,,,0.15,LWC V2.10 B1702,2013-03-10 03:19:00,
2013-03-09 22:24:00,32.7,29.8,30.30,ENE,64,0.0,0.0,89,0.00,,,0.15,LWC V2.10 B1702,2013-03-10 03:24:00,
2013-03-09 22:29:00,32.5,29.6,30.30,ENE,64,0.0,0.0,89,0.00,,,0.15,LWC V2.10 B1702,2013-03-10 03:29:00,
2013-03-09 22:34:00,32.2,29.3,30.31,ENE,64,0.0,0.0,89,0.00,,,0.15,LWC V2.10 B1702,2013-03-10 03:34:00,
2013-03-09 22:39:00,32.0,29.1,30.31,ENE,64,0.0,0.0,89,0.00,,,0.15,LWC V2.10 B1702,2013-03-10 03:39:00,
2013-03-09 22:44:00,31.8,28.9,30.31,ENE,64,0.0,0.0,89,0.00,,,0.15,LWC V2.10 B1702,2013-03-10 03:44:00,
2013-03-09 22:49:00,31.5,28.6,30.30,ENE,64,0.0,0.0,89,0.00,,,0.15,LWC V2.10 B1702,2013-03-10 03:49:00,
2013-03-09 22:54:00,31.2,28.3,30.30,ENE,64,0.0,0.0,89,0.00,,,0.15,LWC V2.10 B1702,2013-03-10 03:54:00,
2013-03-09 22:59:00,31.0,28.1,30.30,ENE,64,0.0,0.0,89,0.00,,,0.15,LWC V2.10 B1702,2013-03-10 03:59:00,
2013-03-09 23:04:00,30.7,27.9,30.29,ENE,64,0.0,0.0,89,0.00,,,0.15,LWC V2.10 B1702,2013-03-10 04:04:00,
2013-03-09 23:09:00,30.6,28.0,30.29,ENE,64,0.0,0.0,90,0.00,,,0.15,LWC V2.10 B1702,2013-03-10 04:09:00,
2013-03-09 23:14:00,30.6,28.0,30.29,ENE,64,0.0,0.0,90,0.00,,,0.15,LWC V2.10 B1702,2013-03-10 04:14:00,
2013-03-09 23:19:00,30.4,27.8,30.30,ENE,64,0.0,0.0,90,0.00,,,0.15,LWC V2.10 B1702,2013-03-10 04:19:00,
2013-03-09 23:24:00,30.3,27.7,30.30,ENE,64,0.0,0.0,90,0.00,,,0.15,LWC V2.10 B1702,2013-03-10 04:24:00,
2013-03-09 23:29:00,30.1,27.5,30.30,ENE,64,0.0,0.0,90,0.00,,,0.15,LWC V2.10 B1702,2013-03-10 04:29:00,
2013-03-09 23:34:00,30.0,27.4,30.30,ENE,64,0.0,0.0,90,0.00,,,0.15,LWC V2.10 B1702,2013-03-10 04:34:00,
2013-03-09 23:39:00,29.8,27.2,30.30,ENE,64,0.0,0.0,90,0.00,,,0.15,LWC V2.10 B1702,2013-03-10 04:39:00,
2013-03-09 23:44:00,29.8,27.2,30.30,ENE,64,0.0,0.0,90,0.00,,,0.15,LWC V2.10 B1702,2013-03-10 04:44:00,
2013-03-09 23:49:00,29.8,27.2,30.30,ENE,64,0.0,0.0,90,0.00,,,0.15,LWC V2.10 B1702,2013-03-10 04:49:00,
2013-03-09 23:54:00,29.9,27.6,30.30,ENE,64,0.0,0.0,91,0.00,,,0.15,LWC V2.10 B1702,2013-03-10 04:54:00,
2013-03-09 23:59:00,29.9,27.6,30.30,ENE,64,0.0,0.0,91,0.00,,,0.15,LWC V2.10 B1702,2013-03-10 04:59:00,